Simultaneous Nadir Overpasses (SNOs) Predictions

Prediction of SNOs between NOAA-20 and METOP-B Satellite Orbit:

Table of predicted SNOs for the next 14.0 days since TLE Epoch: 2/3/2024
Index Date (NOAA-20) Time (NOAA-20) Lat,Lon (NOAA-20) SZA (NOAA-20 ) Date (METOP-B) Time (METOP-B) Lat,Lon (METOP-B) SZA (METOP-B ) Distance(km) Time Diff (sec)
1 02/05/2024 19:02:26 73.70,-115.81 89.96 02/05/2024 19:03:33 73.67,-113.35 89.77 76.71 67
2 02/05/2024 19:53:08 -73.62, 51.72 90.16 02/05/2024 19:54:17 -73.58, 53.75 90.33 64.08 69
3 02/05/2024 20:43:50 73.41,-140.50 89.60 02/05/2024 20:45:01 73.36,-139.41 89.47 35.06 71
4 02/05/2024 21:34:32 -73.32, 27.02 90.51 02/05/2024 21:35:45 -73.26, 27.71 90.63 22.98 73
5 02/05/2024 22:25:14 73.11,-165.21 89.25 02/05/2024 22:26:27 73.14,-165.23 89.26 3.21 73
6 02/05/2024 23:15:58 -73.12, 2.08 90.75 02/05/2024 23:17:09 -73.15, 2.12 90.75 2.85 71
7 02/06/2024 00:06:44 73.11, 169.41 89.23 02/06/2024 00:07:49 73.12, 169.40 89.23 1.15 65
8 02/06/2024 00:57:28 -73.13, -23.30 90.77 02/06/2024 00:58:31 -73.13, -23.26 90.78 1.62 63
9 02/06/2024 01:48:14 73.12, 144.02 89.22 02/06/2024 01:49:11 73.11, 144.03 89.19 0.90 57
10 02/06/2024 02:38:58 -73.13, -48.69 90.79 02/06/2024 02:39:53 -73.12, -48.63 90.82 2.32 55
11 02/06/2024 03:29:44 73.12, 118.64 89.20 02/06/2024 03:30:33 73.09, 118.66 89.16 2.96 49
12 02/06/2024 04:20:27 -73.08, -73.96 90.86 02/06/2024 04:21:15 -73.10, -74.00 90.85 2.55 48
13 02/06/2024 05:11:13 73.07, 93.37 89.12 02/06/2024 05:11:55 73.08, 93.28 89.12 2.89 42
14 02/06/2024 06:01:57 -73.09, -99.34 90.88 02/06/2024 06:02:37 -73.09, -99.37 90.88 1.09 40
15 02/06/2024 06:52:43 73.08, 67.99 89.11 02/06/2024 06:53:17 73.06, 67.91 89.09 2.89 34
16 02/06/2024 07:43:27 -73.09,-124.72 90.89 02/06/2024 07:43:59 -73.07,-124.75 90.92 2.05 32
17 02/06/2024 08:34:12 73.08, 42.61 89.09 02/06/2024 08:34:37 73.10, 42.65 89.10 2.53 25
18 02/06/2024 09:24:56 -73.09,-150.10 90.91 02/06/2024 09:25:19 -73.11,-150.01 90.91 3.47 23
19 02/06/2024 10:15:42 73.08, 17.22 89.07 02/06/2024 10:15:59 73.09, 17.27 89.07 1.61 17
20 02/06/2024 11:06:26 -73.10,-175.49 90.93 02/06/2024 11:06:41 -73.09,-175.38 90.94 3.36 15
21 02/06/2024 11:57:12 73.09, -8.16 89.05 02/06/2024 11:57:21 73.07, -8.10 89.03 2.70 9
22 02/06/2024 12:47:55 -73.05, 159.24 91.00 02/06/2024 12:48:03 -73.08, 159.24 90.98 3.24 8
23 02/06/2024 13:38:41 73.04, -33.43 88.98 02/06/2024 13:38:43 73.06, -33.47 89.00 2.11 2
24 02/06/2024 14:29:25 -73.05, 133.86 91.02 02/06/2024 14:29:25 -73.06, 133.87 91.01 1.30 0
25 02/06/2024 15:20:11 73.04, -58.81 88.96 02/06/2024 15:20:05 73.04, -58.84 88.96 1.09 6
26 02/06/2024 16:10:55 -73.06, 108.48 91.04 02/06/2024 16:10:47 -73.05, 108.50 91.05 1.10 8
27 02/06/2024 17:01:41 73.05, -84.20 88.95 02/06/2024 17:01:27 73.03, -84.22 88.93 2.55 14
28 02/06/2024 17:52:25 -73.06, 83.09 91.06 02/06/2024 17:52:09 -73.04, 83.13 91.08 3.02 16
29 02/06/2024 18:43:11 73.05,-109.58 88.93 02/06/2024 18:42:48 73.06,-109.48 88.94 3.31 23
30 02/06/2024 19:33:54 -73.01, 57.82 91.13 02/06/2024 19:33:31 -73.02, 57.76 91.11 2.25 23
31 02/06/2024 20:24:41 73.05,-134.96 88.91 02/06/2024 20:24:10 73.05,-134.85 88.90 3.54 31
32 02/06/2024 21:15:24 -73.02, 32.44 91.15 02/06/2024 21:14:53 -73.01, 32.38 91.15 2.23 31
33 02/06/2024 22:06:10 73.01,-160.23 88.84 02/06/2024 22:05:32 73.03,-160.23 88.87 2.64 38
34 02/06/2024 22:56:54 -73.02, 7.06 91.17 02/06/2024 22:56:14 -73.04, 7.12 91.14 3.03 40
35 02/06/2024 23:47:40 73.01, 174.39 88.82 02/06/2024 23:46:54 73.02, 174.40 88.83 0.77 46
36 02/07/2024 00:38:24 -73.02, -18.32 91.18 02/07/2024 00:37:36 -73.03, -18.25 91.17 2.32 48
37 02/07/2024 01:29:10 73.01, 149.00 88.80 02/07/2024 01:28:16 73.00, 149.03 88.80 1.69 54
38 02/07/2024 02:19:54 -73.03, -43.71 91.20 02/07/2024 02:18:58 -73.01, -43.63 91.21 3.16 56
39 02/07/2024 03:10:39 72.97, 123.73 88.73 02/07/2024 03:09:38 72.99, 123.66 88.77 3.16 61
40 02/07/2024 04:01:23 -72.98, -68.98 91.28 02/07/2024 04:00:20 -73.00, -69.00 91.24 1.88 63
41 02/07/2024 04:52:09 72.97, 98.35 88.71 02/07/2024 04:51:00 72.97, 98.28 88.73 2.07 69
42 02/07/2024 05:42:53 -72.98, -94.36 91.29 02/07/2024 05:41:42 -72.98, -94.37 91.28 0.35 71
43 02/07/2024 06:33:37 72.87, 73.18 88.58 02/07/2024 06:32:24 72.85, 72.70 88.61 15.92 73
44 02/07/2024 07:24:20 -72.84,-119.42 91.48 02/07/2024 07:23:07 -72.82,-120.06 91.44 21.01 73
45 02/07/2024 08:15:01 72.57, 48.43 88.23 02/07/2024 08:13:51 72.58, 46.81 88.36 54.07 70
46 02/07/2024 09:05:44 -72.54,-144.18 91.83 02/07/2024 09:04:34 -72.55,-145.95 91.69 58.99 70
47 02/07/2024 09:56:25 72.27, 23.66 87.87 02/07/2024 09:55:19 72.26, 20.83 88.06 95.84 66



Historial Predications of SNOs between NOAA-20 and METOP-B
